WA4FG Weather Reports


Display with metric or nautical units.
time (UTC)temp
F
wind
direction
speed
MPH
gust
MPH
rain 1hr
in
rain 24hr
in
rain mn
in
humidity
%
barometer
mb
20240621133616 76 91 0.0 2.0 0.00 0.00 0.00 74 1024.0
20240621132604 75 126 0.0 0.0 0.00 0.00 0.00 81 1023.9
20240621131533 74 126 0.0 0.0 0.00 0.00 0.00 82 1023.9
20240621130516 72 126 0.0 0.0 0.00 0.00 0.00 89 1023.9
20240621124511 71 126 0.0 0.0 0.00 0.00 0.00 93 1023.8
20240621124009 70 126 0.0 0.0 0.00 0.00 0.00 93 1023.7
20240621123511 70 126 0.0 0.0 0.00 0.00 0.00 93 1023.7
20240621122955 70 126 0.0 0.0 0.00 0.00 0.00 93 1023.8
20240621122422 69 126 0.0 0.0 0.00 0.00 0.00 93 1023.8
20240621121922 69 126 0.0 0.0 0.00 0.00 0.00 93 1023.8
20240621121357 69 126 0.0 0.0 0.00 0.00 0.00 93 1023.8
20240621120834 69 126 0.0 0.0 0.00 0.00 0.00 93 1023.8
20240621120333 68 126 0.0 0.0 0.00 0.00 0.00 93 1023.8
20240621115835 68 126 0.0 0.0 0.00 0.00 0.00 93 1023.7
20240621114754 68 126 0.0 0.0 0.00 0.00 0.00 93 1023.7
20240621113722 68 126 0.0 0.0 0.00 0.00 0.00 93 1023.7
20240621113200 68 126 0.0 0.0 0.00 0.00 0.00 93 1023.6
20240621112702 68 126 0.0 0.0 0.00 0.00 0.00 93 1023.4
20240621112122 68 126 0.0 0.0 0.00 0.00 0.00 93 1023.3
20240621111620 68 126 0.0 0.0 0.00 0.00 0.00 93 1023.3
20240621111115 68 126 0.0 0.0 0.00 0.00 0.00 93 1023.3
20240621110547 68 126 0.0 0.0 0.00 0.00 0.00 93 1023.3
20240621110055 68 126 0.0 0.0 0.00 0.00 0.00 92 1023.3
20240621105550 68 126 0.0 0.0 0.00 0.00 0.00 92 1023.2
20240621104517 68 126 0.0 0.0 0.00 0.00 0.00 92 1023.2
20240621104017 68 126 0.0 0.0 0.00 0.00 0.00 92 1023.1
20240621103451 68 126 0.0 0.0 0.00 0.00 0.00 92 1023.1
20240621102432 68 126 0.0 0.0 0.00 0.00 0.00 92 1022.9
20240621101849 68 126 0.0 0.0 0.00 0.00 0.00 91 1022.9
20240621101346 68 126 0.0 0.0 0.00 0.00 0.00 91 1022.9
20240621100334 68 126 0.0 0.0 0.00 0.00 0.00 91 1023.0
20240621094252 68 126 0.0 0.0 0.00 0.00 0.00 91 1022.7
20240621093725 68 126 0.0 0.0 0.00 0.00 0.00 91 1022.7
20240621093218 68 126 0.0 0.0 0.00 0.00 0.00 91 1022.7
20240621092716 68 126 0.0 0.0 0.00 0.00 0.00 91 1022.7
20240621092157 69 126 0.0 0.0 0.00 0.00 0.00 91 1022.6
20240621091614 69 126 0.0 0.0 0.00 0.00 0.00 91 1022.6
20240621091111 69 126 0.0 0.0 0.00 0.00 0.00 91 1022.6
20240621090609 69 126 0.0 0.0 0.00 0.00 0.00 91 1022.5
20240621085538 69 126 0.0 0.0 0.00 0.00 0.00 90 1022.4
20240621085018 69 126 0.0 0.0 0.00 0.00 0.00 90 1022.4
20240621084017 69 126 0.0 0.0 0.00 0.00 0.00 90 1022.4
20240621083451 69 126 0.0 0.0 0.00 0.00 0.00 89 1022.4
20240621082444 69 126 0.0 0.0 0.00 0.00 0.00 89 1022.4
20240621081920 69 126 0.0 0.0 0.00 0.00 0.00 89 1022.4
20240621080832 69 126 0.0 0.0 0.00 0.00 0.00 89 1022.4
20240621080305 70 126 0.0 0.0 0.00 0.00 0.00 89 1022.3
20240621075802 70 126 0.0 0.0 0.00 0.00 0.00 89 1022.2
20240621074740 70 126 0.0 0.0 0.00 0.00 0.00 89 1022.2
20240621074213 70 126 0.0 0.0 0.00 0.00 0.00 89 1022.3
20240621073727 70 126 0.0 0.0 0.00 0.00 0.00 89 1022.3
20240621073149 70 126 0.0 0.0 0.00 0.00 0.00 88 1022.3
20240621072622 70 126 0.0 0.0 0.00 0.00 0.00 88 1022.3
20240621072121 70 126 0.0 0.0 0.00 0.00 0.00 88 1022.3
20240621071611 70 126 0.0 0.0 0.00 0.00 0.00 88 1022.4
20240621071031 71 126 0.0 0.0 0.00 0.00 0.00 87 1022.4
20240621070001 71 126 0.0 0.0 0.00 0.00 0.00 87 1022.5
20240621065458 71 126 0.0 0.0 0.00 0.00 0.00 87 1022.5
20240621064957 71 126 0.0 0.0 0.00 0.00 0.00 87 1022.6
20240621064439 71 126 0.0 0.0 0.00 0.00 0.00 87 1022.5
20240621063941 71 126 0.0 0.0 0.00 0.00 0.00 86 1022.5
20240621063427 71 126 0.0 0.0 0.00 0.00 0.00 86 1022.5
20240621062428 71 126 0.0 0.0 0.00 0.00 0.00 85 1022.4
20240621061923 72 126 0.0 0.0 0.00 0.00 0.00 85 1022.5
20240621061422 72 126 0.0 0.0 0.00 0.00 0.00 85 1022.5
20240621060926 72 126 0.0 0.0 0.00 0.00 0.00 85 1022.5
20240621055339 72 126 0.0 0.0 0.00 0.00 0.00 86 1022.5
20240621054313 73 126 0.0 0.0 0.00 0.00 0.00 85 1022.5
20240621053810 73 126 0.0 0.0 0.00 0.00 0.00 85 1022.4
20240621053311 73 126 0.0 0.0 0.00 0.00 0.00 85 1022.5
20240621052309 73 126 0.0 0.0 0.00 0.00 0.00 85 1022.5
20240621051251 74 126 0.0 0.0 0.00 0.00 0.00 85 1022.5
20240621050741 74 126 0.0 0.0 0.00 0.00 0.00 85 1022.6
20240621050244 74 126 0.0 0.0 0.00 0.00 0.00 85 1022.7
20240621045740 74 126 0.0 0.0 0.00 0.00 0.00 85 1022.7
20240621045241 74 126 0.0 0.0 0.00 0.00 0.00 83 1022.7
20240621044719 74 126 0.0 0.0 0.00 0.00 0.00 83 1022.7
20240621044142 74 126 0.0 0.0 0.00 0.00 0.00 83 1022.7
20240621043643 75 126 0.0 0.0 0.00 0.00 0.00 83 1022.7
20240621043129 75 126 0.0 0.0 0.00 0.00 0.00 83 1022.7
20240621042600 75 126 0.0 0.0 0.00 0.00 0.00 82 1022.7
20240621042101 75 126 0.0 0.0 0.00 0.00 0.00 82 1022.8
20240621041534 75 126 0.0 0.0 0.00 0.00 0.00 81 1022.7
20240621041009 75 126 0.0 0.0 0.00 0.00 0.00 81 1022.7
20240621040457 76 126 0.0 0.0 0.00 0.00 0.00 81 1022.8
20240621035953 76 126 0.0 0.0 0.00 0.00 0.00 80 1022.7
20240621035430 76 126 0.0 0.0 0.00 0.00 0.00 80 1022.7
20240621034408 76 126 0.0 0.0 0.00 0.00 0.00 79 1022.8
20240621033904 76 126 0.0 0.0 0.00 0.00 0.00 79 1022.8
20240621033405 76 126 0.0 0.0 0.00 0.00 0.00 78 1022.8
20240621032317 76 126 0.0 0.0 0.00 0.00 0.00 77 1022.8
20240621031818 77 126 0.0 0.0 0.00 0.00 0.00 77 1022.7
20240621031251 77 126 0.0 0.0 0.00 0.00 0.00 76 1022.7
20240621030741 77 126 0.0 0.0 0.00 0.00 0.00 76 1022.8
20240621025149 78 126 0.0 0.0 0.00 0.00 0.00 75 1022.6
20240621024631 78 126 0.0 0.0 0.00 0.00 0.00 74 1022.5
20240621024130 78 126 0.0 0.0 0.00 0.00 0.00 74 1022.4
20240621023618 78 126 0.0 0.0 0.00 0.00 0.00 74 1022.3
20240621022037 79 126 0.0 0.0 0.00 0.00 0.00 72 1022.2
20240621021517 79 126 0.0 0.0 0.00 0.00 0.00 72 1022.1
20240621020440 79 126 0.0 0.0 0.00 0.00 0.00 70 1022.0
20240621015928 80 126 0.0 0.0 0.00 0.00 0.00 70 1022.0
20240621014901 80 126 0.0 0.0 0.00 0.00 0.00 69 1021.8
20240621014343 80 126 0.0 0.0 0.00 0.00 0.00 69 1021.7
20240621013821 81 126 0.0 0.0 0.00 0.00 0.00 68 1021.7
20240621013255 81 126 0.0 0.0 0.00 0.00 0.00 68 1021.7
20240621012756 81 126 0.0 0.0 0.00 0.00 0.00 66 1021.7
20240621012256 82 126 0.0 0.0 0.00 0.00 0.00 66 1021.6
20240621011729 82 126 0.0 0.0 0.00 0.00 0.00 67 1021.7
20240621010710 83 126 0.0 0.0 0.00 0.00 0.00 65 1021.7
20240621010210 83 126 0.0 0.0 0.00 0.00 0.00 62 1021.7
20240621005133 84 126 0.0 0.0 0.00 0.00 0.00 62 1021.6
20240621004626 84 126 0.0 0.0 0.00 0.00 0.00 63 1021.6
20240621003556 85 126 0.0 0.0 0.00 0.00 0.00 63 1021.6
20240621003028 85 126 0.0 0.0 0.00 0.00 0.00 61 1021.7
20240621002516 85 126 0.0 0.0 0.00 0.00 0.00 60 1021.7
20240621001510 85 126 0.0 0.0 0.00 0.00 0.00 59 1021.6
20240621001007 85 126 0.0 0.0 0.00 0.00 0.00 59 1021.6
20240621000449 86 126 0.0 0.0 0.00 0.00 0.00 60 1021.6
20240620235944 86 126 0.0 0.0 0.00 0.00 0.00 58 1021.5
20240620235446 86 126 0.0 0.0 0.00 0.00 0.00 56 1021.4
20240620234927 87 126 0.0 0.0 0.00 0.00 0.00 59 1021.4
20240620234428 87 126 0.0 0.0 0.00 0.00 0.00 55 1021.4
20240620233902 87 126 0.0 1.0 0.00 0.00 0.00 56 1021.5
20240620233345 87 126 0.0 1.0 0.00 0.00 0.00 56 1021.5
20240620232845 87 122 0.0 1.0 0.00 0.00 0.00 52 1021.5
20240620232346 87 89 0.0 1.0 0.00 0.00 0.00 50 1021.4
20240620231818 87 88 0.0 0.0 0.00 0.00 0.00 52 1021.4
20240620230750 88 89 0.0 0.0 0.00 0.00 0.00 54 1021.5
20240620230247 88 89 0.0 1.0 0.00 0.00 0.00 51 1021.5
20240620225737 88 88 0.0 1.0 0.00 0.00 0.00 52 1021.6
20240620225234 88 90 0.0 3.0 0.00 0.00 0.00 50 1021.6
20240620224719 88 355 0.0 3.0 0.00 0.00 0.00 50 1021.7
20240620224203 88 231 0.0 1.0 0.00 0.00 0.00 51 1021.7
20240620223120 88 226 0.0 1.0 0.00 0.00 0.00 51 1021.7
20240620222620 88 226 0.0 3.0 0.00 0.00 0.00 49 1021.7
20240620222116 88 226 0.0 3.0 0.00 0.00 0.00 49 1021.8
20240620221555 88 229 0.0 0.0 0.00 0.00 0.00 51 1021.9
20240620221028 88 229 0.0 0.0 0.00 0.00 0.00 50 1021.9
20240620220525 87 229 0.0 1.0 0.00 0.00 0.00 51 1022.0
20240620220029 88 229 0.0 1.0 0.00 0.00 0.00 51 1022.0
20240620215457 88 229 0.0 1.0 0.00 0.00 0.00 50 1022.1
20240620214932 88 229 0.0 0.0 0.00 0.00 0.00 53 1022.1
20240620214430 88 229 1.0 5.0 0.00 0.00 0.00 56 1022.1
20240620213926 88 225 1.0 5.0 0.00 0.00 0.00 50 1022.1
20240620213423 88 223 0.0 2.0 0.00 0.00 0.00 51 1022.1
20240620212857 88 80 0.0 0.0 0.00 0.00 0.00 53 1022.2
20240620212352 88 80 0.0 0.0 0.00 0.00 0.00 52 1022.2
20240620211831 88 80 0.0 1.0 0.00 0.00 0.00 50 1022.2
20240620211327 88 80 0.0 1.0 0.00 0.00 0.00 50 1022.4
20240620210759 88 80 0.0 0.0 0.00 0.00 0.00 49 1022.5
20240620210259 88 78 0.0 1.0 0.00 0.00 0.00 50 1022.5
20240620205740 88 78 0.0 1.0 0.00 0.00 0.00 49 1022.5
20240620204741 88 95 0.0 1.0 0.00 0.00 0.00 50 1022.7
20240620204212 88 103 0.0 0.0 0.00 0.00 0.00 51 1022.6
20240620202702 88 240 0.0 8.0 0.00 0.00 0.00 48 1022.7
20240620202201 88 324 0.0 4.0 0.00 0.00 0.00 48 1022.7
20240620201700 88 75 0.0 4.0 0.00 0.00 0.00 48 1022.8
20240620201159 88 243 0.0 4.0 0.00 0.00 0.00 48 1022.7
20240620200630 89 311 0.0 4.0 0.00 0.00 0.00 48 1022.8
20240620200128 89 192 0.0 4.0 0.00 0.00 0.00 49 1022.9
20240620195624 89 161 0.0 3.0 0.00 0.00 0.00 47 1022.9
20240620195122 89 280 0.0 5.0 0.00 0.00 0.00 45 1023.0
20240620194559 89 280 0.0 5.0 0.00 0.00 0.00 45 1023.0
20240620194056 89 238 0.0 6.0 0.00 0.00 0.00 46 1023.0
20240620193529 90 285 0.0 6.0 0.00 0.00 0.00 45 1023.0
20240620193003 89 4 0.0 4.0 0.00 0.00 0.00 46 1023.0
20240620192437 89 93 0.0 4.0 0.00 0.00 0.00 46 1023.1
20240620191912 89 157 1.0 4.0 0.00 0.00 0.00 46 1023.2
20240620191357 90 70 1.0 8.0 0.00 0.00 0.00 45 1023.2
20240620190853 90 9 1.0 8.0 0.00 0.00 0.00 45 1023.3
20240620190341 90 242 1.0 7.0 0.00 0.00 0.00 45 1023.3
20240620185326 90 93 0.0 3.0 0.00 0.00 0.00 46 1023.6
20240620184806 89 298 0.0 3.0 0.00 0.00 0.00 45 1023.6
20240620184304 89 251 0.0 1.0 0.00 0.00 0.00 46 1023.6
20240620183740 90 243 0.0 1.0 0.00 0.00 0.00 46 1023.7
20240620183216 90 308 0.0 4.0 0.00 0.00 0.00 46 1023.7
20240620182706 90 248 1.0 5.0 0.00 0.00 0.00 45 1023.7
20240620182154 89 29 1.0 5.0 0.00 0.00 0.00 46 1023.8
20240620181630 89 95 1.0 5.0 0.00 0.00 0.00 45 1023.9
20240620180617 89 111 0.0 4.0 0.00 0.00 0.00 45 1024.0
20240620180105 89 336 0.0 3.0 0.00 0.00 0.00 47 1024.2
20240620175527 89 198 0.0 4.0 0.00 0.00 0.00 49 1024.2
20240620174525 89 342 0.0 5.0 0.00 0.00 0.00 46 1024.4
20240620174000 89 182 1.0 5.0 0.00 0.00 0.00 47 1024.4
20240620173500 89 91 1.0 6.0 0.00 0.00 0.00 46 1024.5
20240620173000 88 251 0.0 6.0 0.00 0.00 0.00 47 1024.5
20240620172439 88 203 0.0 4.0 0.00 0.00 0.00 49 1024.5
20240620171349 88 351 1.0 8.0 0.00 0.00 0.00 48 1024.6
20240620170846 88 290 2.0 8.0 0.00 0.00 0.00 48 1024.7
20240620170326 88 224 2.0 6.0 0.00 0.00 0.00 48 1024.7
20240620165827 88 209 1.0 6.0 0.00 0.00 0.00 48 1024.7
20240620165328 88 9 1.0 6.0 0.00 0.00 0.00 47 1024.7
20240620164826 88 74 1.0 6.0 0.00 0.00 0.00 49 1024.7
20240620164321 88 195 1.0 7.0 0.00 0.00 0.00 48 1024.7
20240620163821 88 21 1.0 7.0 0.00 0.00 0.00 49 1024.7
20240620163320 88 250 1.0 7.0 0.00 0.00 0.00 48 1024.8
20240620162821 87 236 0.0 4.0 0.00 0.00 0.00 50 1024.9
20240620162251 87 246 0.0 6.0 0.00 0.00 0.00 51 1024.8
20240620161751 87 266 1.0 6.0 0.00 0.00 0.00 51 1025.0
20240620161244 86 253 1.0 4.0 0.00 0.00 0.00 52 1025.0
20240620160238 86 89 0.0 4.0 0.00 0.00 0.00 51 1025.0
20240620155736 86 217 0.0 3.0 0.00 0.00 0.00 52 1025.1
20240620155233 86 153 0.0 2.0 0.00 0.00 0.00 52 1025.1
20240620154729 86 328 0.0 4.0 0.00 0.00 0.00 52 1025.2
20240620153708 86 124 1.0 7.0 0.00 0.00 0.00 53 1025.3
20240620153122 86 139 1.0 7.0 0.00 0.00 0.00 53 1025.3
20240620152619 85 166 1.0 7.0 0.00 0.00 0.00 54 1025.3
20240620151550 85 9 0.0 4.0 0.00 0.00 0.00 53 1025.4
20240620150528 84 290 0.0 7.0 0.00 0.00 0.00 54 1025.4
20240620145523 84 199 1.0 7.0 0.00 0.00 0.00 57 1025.4
20240620144957 83 226 1.0 5.0 0.00 0.00 0.00 58 1025.4
20240620144428 83 271 1.0 5.0 0.00 0.00 0.00 57 1025.3
20240620143926 83 208 1.0 7.0 0.00 0.00 0.00 57 1025.2
20240620143403 82 103 1.0 6.0 0.00 0.00 0.00 59 1025.1
20240620142833 82 320 1.0 6.0 0.00 0.00 0.00 59 1025.1
20240620142331 82 287 1.0 5.0 0.00 0.00 0.00 60 1025.2
20240620141811 82 9 0.0 4.0 0.00 0.00 0.00 61 1025.1
20240620141309 81 352 0.0 4.0 0.00 0.00 0.00 62 1025.2
20240620140809 81 234 0.0 4.0 0.00 0.00 0.00 63 1025.2
20240620140308 80 229 0.0 4.0 0.00 0.00 0.00 65 1025.2
20240620135810 80 226 1.0 10.0 0.00 0.00 0.00 66 1025.2
20240620135307 79 304 1.0 10.0 0.00 0.00 0.00 66 1025.1
20240620134801 78 251 0.0 3.0 0.00 0.00 0.00 68 1025.0
20240620134234 78 150 0.0 3.0 0.00 0.00 0.00 71 1025.0